Watertown, SD

2:28 PM CDT on October 22, 2017 (GMT -0500)
Watertown Municipal

Weather History for KATY - March, 2014

Change the Weather History Date:

Friday, March 21, 2014

  Actual Average Record
Temperature  
Mean Temperature 27 °F 32 °F  
Max Temperature 39 °F 41 °F 78 °F (1910)
Min Temperature 14 °F 22 °F -11 °F (1951)
Degree Days  
Heating Degree Days 38 33  
Month to date heating degree days 871 794  
Since 1 July heating degree days 7837 7205  
Cooling Degree Days 0 0  
Month to date cooling degree days 0 0  
Year to date cooling degree days 0 0  
Moisture  
Dew Point 23 °F    
Average Humidity 81    
Maximum Humidity 100    
Minimum Humidity 61    
Precipitation  
Precipitation T in 0.04 in 0.23 in (1992)
Month to date precipitation 0.53 0.69  
Year to date precipitation 0.96 1.77  
Snow  
Snow T in - - ()
Month to date snowfall 3.6  
Since 1 July snowfall 21.0  
Snow Depth 0.00 in    
Sea Level Pressure  
Sea Level Pressure 30.00 in    
Wind  
Wind Speed 19 mph (NNW)    
Max Wind Speed 32 mph    
Max Gust Speed 38 mph    
Visibility 10 miles    
Events      
T = Trace of Precipitation, MM = Missing Value Source: NWS Daily Summary

Daily Weather History Graph

Daily Weather History Graph

Search for Another Location

Airport or City:

Trip Planner

Search our weather history database for the weather conditions in past years. The results will help you decide how hot, cold, wet, or windy it might be!

Date:

Astronomy

Mar. 21, 2014 Rise Set
Actual Time 7:29 AM CDT 7:42 PM CDT
Civil Twilight 7:00 AM CDT 8:11 PM CDT
Nautical Twilight 6:26 AM CDT 8:46 PM CDT
Astronomical Twilight 5:50 AM CDT 9:21 PM CDT
Moon 12:13 AM CDT (3/21) 10:10 AM CDT (3/21)
Length of Visible Light 13h 11m
Length of Day
12h 12m
Waning Gibbous, 75% of the Moon is Illuminated
Mar 21
Waning Gibbous
Mar 23
Last Quarter
Mar 30
New
Apr 7
First Quarter
Apr 15
Full

Hourly Weather History & Observations

Time (CDT) Temp. Windchill Dew Point Humidity Pressure Visibility Wind Dir Wind Speed Gust Speed Precip Events Conditions
12:53 AM 37.9 °F 28.5 °F 30.0 °F 73% 29.74 in 10.0 mi South 17.3 mph - N/A   Overcast
1:53 AM 37.9 °F 29.6 °F 30.0 °F 73% 29.77 in 10.0 mi West 13.8 mph 20.7 mph N/A   Overcast
2:53 AM 35.1 °F 31.0 °F 30.0 °F 82% 29.77 in 10.0 mi SSW 4.6 mph - N/A   Overcast
3:53 AM 37.0 °F 33.3 °F 32.0 °F 82% 29.74 in 10.0 mi NNW 4.6 mph - N/A   Mostly Cloudy
4:53 AM 35.1 °F 30.1 °F 33.1 °F 92% 29.74 in 10.0 mi WSW 5.8 mph - 0.00 in   Mostly Cloudy
5:53 AM 34.0 °F 28.0 °F 33.1 °F 96% 29.74 in 10.0 mi West 6.9 mph - N/A   Clear
6:53 AM 35.1 °F 26.4 °F 33.1 °F 92% 29.75 in 10.0 mi West 12.7 mph - N/A   Clear
7:53 AM 32.0 °F 22.5 °F 30.0 °F 92% 29.79 in 10.0 mi WNW 12.7 mph - N/A   Clear
8:53 AM 33.1 °F 23.4 °F 30.9 °F 92% 29.81 in 10.0 mi WNW 13.8 mph - N/A   Clear
9:13 AM 34.0 °F 24.2 °F 30.9 °F 89% 29.79 in 10.0 mi NW 15.0 mph - N/A   Mostly Cloudy
9:38 AM 34.0 °F 23.4 °F 30.9 °F 89% 29.80 in 10.0 mi NNW 17.3 mph 23.0 mph N/A   Overcast
9:53 AM 34.0 °F 22.7 °F 32.0 °F 92% 29.85 in 10.0 mi NNW 19.6 mph - N/A   Overcast
10:36 AM 34.0 °F 20.8 °F 28.9 °F 82% 29.84 in 10.0 mi North 27.6 mph 33.4 mph N/A   Overcast
10:53 AM 33.1 °F 19.3 °F 28.0 °F 82% 29.90 in 10.0 mi North 28.8 mph 36.8 mph N/A   Overcast
11:53 AM 32.0 °F 18.4 °F 27.0 °F 82% 29.95 in 10.0 mi NNW 26.5 mph 33.4 mph N/A   Overcast
12:27 PM 34.0 °F 21.0 °F 26.1 °F 73% 29.92 in 10.0 mi North 26.5 mph 33.4 mph N/A   Overcast
12:53 PM 35.1 °F 22.0 °F 25.0 °F 67% 29.99 in 10.0 mi North 28.8 mph 34.5 mph N/A   Overcast
1:53 PM 36.0 °F 23.7 °F 25.0 °F 64% 30.02 in 10.0 mi NNW 26.5 mph 35.7 mph N/A   Mostly Cloudy
2:53 PM 33.1 °F 19.6 °F 21.9 °F 64% 30.08 in 10.0 mi NNW 27.6 mph 38.0 mph N/A   Overcast
3:53 PM 30.0 °F 15.7 °F 21.0 °F 69% 30.12 in 10.0 mi NNW 26.5 mph 35.7 mph N/A   Overcast
4:53 PM 27.0 °F 11.6 °F 19.0 °F 72% 30.15 in 10.0 mi North 26.5 mph 36.8 mph N/A   Overcast
5:28 PM 26.1 °F 10.7 °F 19.0 °F 75% 30.10 in 10.0 mi NNW 25.3 mph 34.5 mph N/A   Overcast
5:53 PM 24.1 °F 7.4 °F 18.0 °F 77% 30.19 in 10.0 mi North 27.6 mph 34.5 mph N/A   Overcast
6:09 PM 24.1 °F 7.4 °F 17.1 °F 75% 30.13 in 10.0 mi North 27.6 mph 32.2 mph N/A   Overcast
6:53 PM 24.1 °F 8.3 °F 15.1 °F 69% 30.21 in 10.0 mi North 24.2 mph 34.5 mph N/A   Mostly Cloudy
7:01 PM 24.1 °F 9.0 °F 15.1 °F 69% 30.16 in 10.0 mi North 21.9 mph - N/A   Scattered Clouds
7:53 PM 21.0 °F 4.6 °F 12.9 °F 71% 30.26 in 10.0 mi NNW 23.0 mph 27.6 mph N/A   Scattered Clouds
8:35 PM 19.9 °F 3.5 °F 12.0 °F 71% 30.22 in 10.0 mi North 21.9 mph 26.5 mph N/A   Mostly Cloudy
8:46 PM 19.0 °F 3.2 °F 10.9 °F 71% 30.22 in 10.0 mi North 19.6 mph - N/A   Scattered Clouds
8:53 PM 19.0 °F 4.5 °F 10.9 °F 71% 30.30 in 10.0 mi North 16.1 mph - N/A   Scattered Clouds
9:53 PM 17.1 °F 0.6 °F 9.0 °F 71% 30.34 in 10.0 mi North 19.6 mph - N/A   Clear
10:53 PM 15.1 °F -1.1 °F 8.1 °F 74% 30.37 in 10.0 mi North 17.3 mph 27.6 mph N/A   Clear
11:53 PM 14.0 °F -3.4 °F 7.0 °F 74% 30.38 in 10.0 mi North 19.6 mph - N/A   Partly Cloudy